Temp
59 57 53 52 52 52 52 50 48 46 46 45 44 43 42 40 39 39 38 38 37 35
59 57 56 55 54 54 51 49 47 47 45 43 43 42 41 39 38 37 36 35 36 35
58 57 56 56 54 51 50 50 47 44 44 42 42 41 40 37 37 37 34 35 35 34
55 55 54 54 53 52 49 48 46 45 43 42 41 40 38 37 37 36 35 34 34 33
54 53 53 53 52 50 48 45 46 44 43 42 41 39 38 37 37 35 33 33 32 33
53 52 52 51 49 47 46 45 44 44 43 42 41 39 38 38 36 35 34 32 32 32
50 51 51 49 47 45 45 44 43 43 43 41 39 39 38 37 35 34 33 33 32 31
48 50 48 45 43 42 43 44 44 42 41 39 40 40 37 36 34 33 32 32 32 32
46 45 43 41 41 41 39 40 40 39 39 38 41 41 40 36 33 33 33 32 31 32
41 40 39 38 38 38 39 39 38 36 36 35 36 41 41 38 34 33 32 32 32 31
39 38 36 37 38 36 36 37 36 35 35 34 36 42 41 38 34 33 33 33 32 31
39 36 36 37 36 35 35 34 35 34 33 33 34 41 41 38 33 33 33 33 32 31
37 37 37 37 34 32 34 34 34 34 33 32 33 39 40 37 32 31 32 32 32 31
36 36 36 33 31 33 32 33 31 31 30 31 32 34 40 40 33 33 31 30 28 28
MSLP
1016.78 1017.66 1018.78 1019.49 1020.09 1020.67 1021.06 1021.47 1022.21 1023.05 1023.25 1023.68 1024.02 1024.51 1025.05 1025.49 1026.01 1026.26 1026.69 1027.00 1027.45 1027.84
1016.27 1016.95 1017.79 1018.81 1019.55 1020.14 1020.73 1021.18 1021.91 1022.80 1023.09 1023.76 1024.10 1024.57 1025.02 1025.51 1026.03 1026.53 1027.00 1027.31 1027.68 1028.05
1015.50 1016.41 1017.20 1018.25 1019.05 1019.74 1020.46 1020.91 1021.62 1022.68 1022.93 1023.65 1024.05 1024.57 1025.08 1025.73 1026.23 1026.67 1027.25 1027.53 1027.85 1028.15
1015.23 1016.08 1016.83 1017.69 1018.48 1019.12 1019.91 1020.55 1021.36 1022.30 1022.84 1023.42 1023.89 1024.45 1025.06 1025.75 1026.18 1026.69 1027.05 1027.46 1027.92 1028.23
1015.00 1015.87 1016.64 1017.33 1018.05 1018.83 1019.58 1020.38 1021.08 1021.90 1022.57 1023.13 1023.68 1024.27 1024.88 1025.53 1025.96 1026.60 1027.13 1027.45 1027.85 1027.93
1014.74 1015.48 1016.18 1017.00 1017.78 1018.59 1019.34 1020.13 1021.00 1021.66 1022.28 1022.83 1023.55 1024.12 1024.74 1025.21 1025.78 1026.28 1026.68 1027.04 1027.48 1027.94
1014.77 1015.44 1016.19 1016.90 1017.69 1018.49 1019.26 1020.05 1020.75 1021.32 1021.94 1022.51 1023.20 1023.72 1024.29 1025.07 1025.68 1026.21 1026.47 1026.66 1027.07 1027.75
1015.01 1015.72 1016.21 1016.91 1017.65 1018.31 1019.14 1019.86 1020.38 1021.01 1021.61 1022.22 1022.88 1023.42 1024.05 1024.79 1025.30 1025.71 1026.03 1026.43 1026.62 1026.97
1015.19 1015.83 1016.21 1016.92 1017.68 1018.30 1019.01 1019.80 1020.40 1020.96 1021.56 1022.21 1022.87 1023.15 1023.59 1024.28 1025.09 1025.56 1025.73 1026.08 1026.08 1026.42
1015.08 1015.83 1016.51 1017.06 1017.70 1018.17 1018.89 1019.61 1020.34 1020.98 1021.55 1022.21 1022.53 1022.92 1023.31 1023.90 1024.54 1024.92 1025.14 1025.52 1025.95 1026.26
1015.19 1015.86 1016.76 1017.33 1017.85 1018.37 1019.00 1019.54 1020.15 1020.82 1021.42 1022.00 1022.60 1022.63 1023.14 1023.89 1024.27 1024.52 1024.70 1025.31 1025.74 1025.85
1014.83 1015.65 1016.61 1017.28 1017.78 1018.25 1018.87 1019.48 1020.02 1020.71 1021.34 1021.88 1022.19 1022.33 1022.67 1023.34 1024.04 1024.33 1024.55 1024.94 1025.10 1025.39
1014.58 1015.48 1016.24 1016.87 1017.54 1018.09 1018.63 1019.16 1019.94 1020.74 1021.21 1021.58 1021.67 1021.95 1022.33 1022.86 1023.43 1024.03 1023.98 1024.16 1024.47 1024.92
1014.33 1014.95 1015.63 1016.54 1017.18 1017.80 1018.44 1019.26 1020.19 1020.76 1021.10 1021.42 1021.46 1021.69 1021.91 1022.14 1022.52 1022.84 1023.43 1023.80 1023.78 1024.08
Wind_Speed
15 10 8 10 9 8 8 7 9 6 7 7 7 6 6 4 4 6 5 7 5 4
13 13 12 12 9 7 6 6 9 8 7 7 7 7 7 5 6 6 4 6 6 4
14 12 11 11 11 10 8 10 11 8 8 7 7 7 7 5 5 6 4 4 6 4
11 11 10 10 10 11 10 11 11 10 9 9 8 7 7 6 7 7 6 5 6 5
11 10 10 10 10 11 11 8 11 10 9 9 8 8 8 8 7 8 7 7 7 7
11 11 11 11 11 10 11 10 9 10 10 10 9 8 7 7 7 7 7 7 7 7
9 10 10 10 10 10 10 11 10 10 9 9 8 8 7 7 7 7 7 7 7 7
7 8 9 10 9 9 10 10 10 10 8 8 8 7 8 7 7 8 7 6 7 7
9 8 9 9 9 9 8 8 9 8 9 8 6 11 13 10 7 7 7 8 7 6
8 9 8 8 9 9 10 8 8 7 7 7 6 14 14 14 6 7 7 7 7 4
8 8 7 8 9 6 6 8 7 7 7 7 6 13 14 13 7 6 6 6 6 6
10 10 9 9 9 5 6 5 5 5 7 8 6 13 15 12 5 5 6 6 7 8
8 10 11 9 8 4 4 5 6 6 6 7 7 13 15 11 4 5 6 6 6 11
9 10 8 7 4 6 6 7 6 5 5 6 6 8 15 17 7 7 5 4 4 3
Wind_Direction
174 169 171 177 175 187 186 170 159 168 154 152 146 134 132 123 123 126 124 127 113 113
172 168 174 177 178 179 160 160 151 166 150 153 143 144 139 136 137 127 129 128 124 120
169 170 164 169 174 168 161 161 156 162 150 154 146 147 140 139 138 132 131 128 137 132
157 163 158 169 170 166 158 160 158 163 155 158 155 154 144 145 148 144 148 143 146 141
152 155 160 166 165 157 157 154 158 158 159 160 160 158 153 160 160 156 160 161 155 168
157 163 167 164 157 155 152 154 156 160 166 166 169 159 166 162 162 165 171 166 171 177
156 163 165 157 153 151 154 156 166 168 168 168 165 165 162 158 161 170 174 179 175 186
147 163 150 147 151 151 160 169 165 162 165 158 165 172 161 166 174 171 173 180 190 197
159 154 155 156 159 157 156 159 160 166 163 161 174 171 172 164 170 176 177 194 201 200
156 160 164 155 154 161 172 160 168 156 151 165 167 175 173 173 176 181 193 196 198 189
164 161 150 156 171 154 152 166 163 159 162 157 191 180 177 179 182 197 203 201 198 190
168 161 163 173 173 152 144 150 154 156 159 170 184 184 185 176 177 203 215 216 201 206
155 167 176 174 159 139 149 142 139 161 172 176 179 195 191 177 167 203 221 214 210 213
163 168 167 147 139 141 132 135 143 157 172 180 182 196 195 192 186 207 217 214 202 201